Location: McCall
(45.0000°N, 116.0000°W)
Time: 13:15:35
(UTC-06:00)

Amateur Radio Satellites - All Passes

Search period start: 28 June 2017 12:45
Search period end: 29 June 2017 12:45
Location: McCall, 45.0000°N, 116.0000°W

Satellite Date Start Highest point End Downlink Frequencies (MHz)
Time Altitude Azimuth
DUCHIFAT 1 28 Jun 12:55:16 12:59:31 83° 256° (WSW) 13:03:48 145.980
PCSat 28 Jun 12:57:37 13:03:03 86° 303° (WNW) 13:08:32 145.827
NANOSAT C BR1 28 Jun 13:05:45 13:09:55 57° 259° (W) 13:14:09 145.865
Gurwin Techsat 1B 28 Jun 13:11:24 13:14:33 16° 58° (ENE) 13:17:42 435.225
AO-7 28 Jun 13:22:47 13:25:16 12° 35° (NE) 13:27:45 .
Oscar 19 28 Jun 13:29:20 13:33:53 33° 66° (ENE) 13:38:25 437.125/150
ISS 28 Jun 13:41:52 13:45:03 46° 21° (NNE) 13:48:16 437.550
POLYITAN 1 28 Jun 13:48:01 13:51:08 20° 267° (W) 13:54:17 437.675
BUGSAT 1 28 Jun 13:52:05 13:56:13 64° 259° (W) 14:00:25 437.445
LO-87 28 Jun 13:56:17 13:58:58 20° 293° (WNW) 14:01:38 145.935 - 145.965
SPROUT 28 Jun 13:59:57 14:04:13 56° 100° (E) 14:08:26 437.525
QB50P2 28 Jun 14:00:08 14:02:22 14° 270° (W) 14:04:37 145.880/145.840
VELOX 1 28 Jun 14:04:03 14:08:25 55° 100° (E) 14:12:47 145.980
DX 1 28 Jun 14:13:23 14:16:54 23° 94° (E) 14:20:23 434.975-435.025
ESTCUBE 1 28 Jun 14:17:39 14:21:29 28° 293° (WNW) 14:25:19 437.505/2401.250
Tancredo 1 28 Jun 14:19:28 14:22:26 49° 215° (SW) 14:25:23 437.200
UKube-1 28 Jun 14:23:49 14:27:03 20° 93° (E) 14:30:15 .
PCSat 28 Jun 14:43:25 14:47:15 19° 322° (NW) 14:51:07 145.827
50 SAT 28 Jun 14:47:44 14:51:10 88° 101° (E) 14:54:34 437.505
Gurwin Techsat 1B 28 Jun 14:48:29 14:53:49 82° 256° (WSW) 14:59:11 435.225
SO-50 28 Jun 14:55:24 14:59:57 78° 124° (ESE) 15:04:29 436.795
AO-7 28 Jun 15:08:10 15:15:48 42° 58° (ENE) 15:23:29 .
Oscar 19 28 Jun 15:08:27 15:13:08 35° 263° (W) 15:17:50 437.125/150
ISS 28 Jun 15:18:30 15:21:29 32° 220° (SW) 15:24:27 437.550
BEESAT 28 Jun 15:32:30 15:34:02 11° 88° (E) 15:35:33 436.000
SPROUT 28 Jun 15:37:01 15:39:41 16° 298° (WNW) 15:42:19 437.525
VELOX 1 28 Jun 15:41:34 15:44:27 17° 298° (WNW) 15:47:22 145.980
DX 1 28 Jun 15:49:09 15:53:10 36° 291° (WNW) 15:57:10 434.975-435.025
ITAMSAT 1 28 Jun 15:52:37 15:57:41 56° 70° (ENE) 16:02:49 435.822/435.867
UKube-1 28 Jun 15:59:09 16:03:14 41° 290° (WNW) 16:07:17 .
MOZHAYETS 4 28 Jun 16:09:10 16:12:17 18° 91° (E) 16:15:23
Gurwin Techsat 1B 28 Jun 16:33:15 16:34:34 11° 274° (W) 16:35:53 435.225
SO-50 28 Jun 16:37:38 16:40:56 19° 324° (NW) 16:44:14 436.795
ITUPSAT 1 28 Jun 16:59:59 17:04:48 81° 105° (ESE) 17:09:35 437.325
AO-7 28 Jun 17:00:23 17:08:24 51° 259° (WSW) 17:16:32 .
CUBESAT XI-V 28 Jun 17:00:30 17:02:05 12° 88° (E) 17:03:39 437.345
BEESAT 28 Jun 17:07:37 17:12:26 85° 288° (WNW) 17:17:12 436.000
KKS-1 28 Jun 17:19:15 17:20:39 11° 89° (E) 17:22:02 437.445
CUTE-I 28 Jun 17:24:18 17:26:27 12° 54° (NE) 17:28:36 437.470
DOVE 4 28 Jun 17:25:41 17:28:41 19° 63° (ENE) 17:31:47 437.250
ITAMSAT 1 28 Jun 17:33:40 17:37:30 20° 268° (W) 17:41:21 435.822/435.867
XW-2F 28 Jun 17:42:20 17:43:15 11° 61° (ENE) 17:44:11 145.980 - 146.000
MOZHAYETS 4 28 Jun 17:45:17 17:49:44 50° 289° (WNW) 17:54:08
XW-2D 28 Jun 17:47:45 17:49:40 13° 63° (ENE) 17:51:34 145.860 - 145.880
XW-2B 28 Jun 17:56:20 17:58:42 16° 65° (ENE) 18:01:05 145.730 - 145.750
LilacSat-2 28 Jun 17:59:28 18:02:11 19° 66° (ENE) 18:04:53 437.200
XW-2C 28 Jun 18:11:12 18:14:16 23° 68° (ENE) 18:17:20 145.795 - 145.815
KAITUO 1B 28 Jun 18:16:46 18:19:37 21° 67° (ENE) 18:22:27 145.475/437.950
CUBESAT XI-V 28 Jun 18:35:24 18:40:01 78° 284° (WNW) 18:44:37 437.345
ITUPSAT 1 28 Jun 18:39:30 18:41:59 14° 302° (WNW) 18:44:27 437.325
NUDT-PHONESAT 28 Jun 18:46:28 18:50:02 43° 72° (ENE) 18:53:37 437.300
BEESAT 28 Jun 18:47:42 18:49:26 12° 304° (WNW) 18:51:10 436.000
KKS-1 28 Jun 18:53:15 18:57:45 78° 286° (WNW) 19:02:14 437.445
CUTE-I 28 Jun 19:00:16 19:05:35 76° 73° (ENE) 19:10:57 437.470
DOVE 4 28 Jun 19:02:03 19:06:03 43° 262° (W) 19:10:15 437.250
STARS 28 Jun 19:12:55 19:17:23 74° 104° (ESE) 19:21:48 437.465
XW-2F 28 Jun 19:13:01 19:16:50 70° 259° (W) 19:20:39 145.980 - 146.000
HO-68 28 Jun 19:13:06 19:19:42 41° 62° (ENE) 19:26:19 435.675
CUBEBUG 2 28 Jun 19:16:09 19:18:38 14° 60° (ENE) 19:21:08 437.445
XW-2D 28 Jun 19:19:40 19:23:25 53° 260° (W) 19:27:11 145.860 - 145.880
XW-2B 28 Jun 19:28:54 19:32:33 43° 261° (W) 19:36:14 145.730 - 145.750
RS-15 28 Jun 19:31:56 19:38:52 17° 95° (E) 19:45:50 29.354- 29.394
LilacSat-2 28 Jun 19:32:37 19:36:12 37° 262° (W) 19:39:49 437.200
SEEDS 28 Jun 19:38:17 19:41:39 24° 67° (ENE) 19:45:01 437.485
UWE-3 28 Jun 19:41:58 19:44:43 16° 61° (ENE) 19:47:29 435.000/436.395/437.385
XW-2C 28 Jun 19:44:59 19:48:20 28° 264° (W) 19:51:41 145.795 - 145.815
KAITUO 1B 28 Jun 19:50:03 19:53:26 31° 264° (W) 19:56:50 145.475/437.950
PCSat 28 Jun 20:00:50 20:05:09 23° 41° (NE) 20:09:27 145.827
CUTE 1.7 + AOD 2 28 Jun 20:01:43 20:05:55 65° 75° (ENE) 20:10:07 437.475
XW-2A 28 Jun 20:13:28 20:16:53 62° 75° (ENE) 20:20:19 145.665 - 145.685
CUBESAT XI-V 28 Jun 20:16:05 20:16:35 10° 303° (WNW) 20:17:04 437.345
AAUSAT CUBESAT 2 28 Jun 20:18:06 20:21:41 29° 68° (ENE) 20:25:15 437.432
NUDT-PHONESAT 28 Jun 20:22:01 20:24:09 14° 269° (W) 20:26:17 437.300
AO-73 28 Jun 20:26:41 20:30:10 22° 65° (ENE) 20:33:39 145.935
AO-85 28 Jun 20:31:09 20:34:49 33° 118° (ESE) 20:38:24 145.980
STRAND 1 28 Jun 20:35:45 20:40:23 33° 96° (E) 20:44:58 437.568
CUTE-I 28 Jun 20:43:10 20:46:13 15° 271° (W) 20:49:19 437.470
NO-84 28 Jun 20:44:00 20:46:00 14° 123° (ESE) 20:48:06 435.350 FM
Oscar 11 28 Jun 20:49:15 20:52:53 27° 67° (ENE) 20:56:32 .
CUBEBUG 2 28 Jun 20:49:57 20:54:35 77° 258° (WSW) 20:59:22 437.445
STARS 28 Jun 20:50:57 20:53:08 14° 301° (WNW) 20:55:18 437.465
YUBILEINY 28 Jun 20:55:39 21:00:11 15° 73° (ENE) 21:04:44 435.215
HO-68 28 Jun 21:00:33 21:07:22 44° 262° (W) 21:14:12 435.675
ZACube-1 28 Jun 21:02:45 21:07:12 52° 72° (ENE) 21:11:40 437.345
BEESAT 2 28 Jun 21:06:52 21:09:34 18° 112° (ESE) 21:12:19 435.950
SEEDS 28 Jun 21:13:24 21:17:12 33° 264° (W) 21:20:59 437.485
DELFI C3 28 Jun 21:13:42 21:15:19 12° 62° (ENE) 21:16:56 145.870
UWE-3 28 Jun 21:16:00 21:20:35 68° 258° (WSW) 21:25:17 435.000/436.395/437.385
O/OREOS (USA 219) 28 Jun 21:23:10 21:26:58 27° 104° (ESE) 21:30:46 437.305
BEESAT 3 28 Jun 21:35:25 21:39:24 86° 309° (NW) 21:43:27 437.485
RS-15 28 Jun 21:36:54 21:48:55 69° 117° (ESE) 22:01:08 29.354- 29.394
CUTE 1.7 + AOD 2 28 Jun 21:40:23 21:42:10 12° 271° (W) 21:43:57 437.475
PCSat 28 Jun 21:43:40 21:49:07 73° 241° (WSW) 21:54:29 145.827
SO-50 28 Jun 21:45:02 21:48:28 21° 38° (NE) 21:51:55 436.795
AAUSAT CUBESAT 2 28 Jun 21:53:42 21:57:07 25° 266° (W) 22:00:33 437.432
FO-29 28 Jun 22:01:18 22:06:38 19° 86° (E) 22:11:53 435.910
AO-73 28 Jun 22:01:45 22:06:06 44° 262° (W) 22:10:30 145.935
AO-85 28 Jun 22:11:48 22:15:14 27° 316° (NW) 22:18:37 145.980
STRAND 1 28 Jun 22:14:54 22:19:32 35° 294° (WNW) 22:24:09 437.568
NO-84 28 Jun 22:19:02 22:22:55 90° 259° (W) 22:27:08 435.350 FM
Oscar 11 28 Jun 22:25:03 22:28:56 31° 264° (W) 22:32:49 .
ZACube-1 28 Jun 22:40:42 22:43:46 18° 269° (W) 22:46:52 437.345
BEESAT 2 28 Jun 22:43:04 22:46:58 49° 310° (NW) 22:50:55 435.950
DELFI C3 28 Jun 22:45:42 22:49:35 63° 259° (W) 22:53:29 145.870
YUBILEINY 28 Jun 22:46:35 22:55:20 74° 95° (E) 23:04:10 435.215
M-CUBED/EXP-1 PRIME 28 Jun 22:48:17 22:51:05 19° 100° (E) 22:54:01 437.505
EO-88 28 Jun 22:49:20 22:53:01 84° 257° (WSW) 22:56:43 145.990 - 145.960
LO-87 28 Jun 23:00:59 23:03:25 18° 66° (ENE) 23:05:51 145.935 - 145.965
O/OREOS (USA 219) 28 Jun 23:02:05 23:06:14 34° 302° (WNW) 23:10:24 437.305
TIGRISAT 28 Jun 23:08:23 23:12:25 28° 95° (E) 23:16:19 435.000
BEESAT 3 28 Jun 23:15:20 23:17:36 14° 325° (NW) 23:19:53 437.485
SO-50 28 Jun 23:24:52 23:29:23 70° 237° (WSW) 23:33:54 436.795
PRISM 28 Jun 23:28:19 23:32:17 44° 100° (E) 23:36:14 437.425
PCSat 28 Jun 23:31:05 23:31:30 10° 259° (W) 23:31:55 145.827
ESTCUBE 1 28 Jun 23:41:56 23:46:02 36° 69° (ENE) 23:50:09 437.505/2401.250
FO-29 28 Jun 23:44:41 23:52:37 87° 105° (ESE) 00:00:21 435.910
RS-15 28 Jun 23:50:29 00:02:15 48° 324° (NW) 00:14:05 29.354- 29.394
UNISAT 6 28 Jun 23:51:14 23:55:55 83° 104° (ESE) 00:00:28 437.425
NO-84 28 Jun 23:57:26 00:00:59 27° 343° (NNW) 00:04:42 435.350 FM
M-CUBED/EXP-1 PRIME 29 Jun 00:22:04 00:25:36 38° 294° (WNW) 00:29:23 437.505
BEESAT 2 29 Jun 00:24:59 00:25:41 10° 331° (NNW) 00:26:24 435.950
EO-79 29 Jun 00:29:28 00:31:38 14° 90° (E) 00:33:46 145.935-145.965
LO-87 29 Jun 00:33:22 00:36:36 33° 263° (W) 00:39:54 145.935 - 145.965
DUCHIFAT 1 29 Jun 00:38:46 00:40:57 14° 90° (E) 00:43:07 145.980
TIGRISAT 29 Jun 00:44:56 00:49:05 33° 292° (WNW) 00:53:08 435.000
YUBILEINY 29 Jun 00:45:49 00:53:02 28° 297° (WNW) 01:00:20 435.215
NANOSAT C BR1 29 Jun 00:48:41 00:51:49 20° 93° (E) 00:54:55 145.865
SPROUT 29 Jun 00:54:45 00:58:54 53° 72° (ENE) 01:03:06 437.525
VELOX 1 29 Jun 01:02:50 01:07:09 61° 73° (ENE) 01:11:30 145.980
PRISM 29 Jun 01:04:26 01:07:14 18° 296° (WNW) 01:10:03 437.425
DX 1 29 Jun 01:10:41 01:14:17 26° 66° (ENE) 01:17:54 434.975-435.025
AIST 2D 29 Jun 01:16:35 01:20:04 77° 285° (WNW) 01:23:32 435.315
ESTCUBE 1 29 Jun 01:19:15 01:22:55 24° 266° (W) 01:26:35 437.505/2401.250
UKube-1 29 Jun 01:20:05 01:23:26 23° 65° (ENE) 01:26:49 .
50 SAT 29 Jun 01:21:10 01:24:20 39° 72° (ENE) 01:27:31 437.505
POLYITAN 1 29 Jun 01:29:20 01:33:35 58° 101° (E) 01:37:46 437.675
UNISAT 6 29 Jun 01:29:49 01:31:55 13° 301° (WNW) 01:34:00 437.425
FO-29 29 Jun 01:30:45 01:36:42 25° 304° (NW) 01:42:39 435.910
BUGSAT 1 29 Jun 01:32:51 01:35:32 16° 91° (E) 01:38:11 437.445
NO-84 29 Jun 01:36:19 01:39:38 21° 4° (N) 01:43:02 435.350 FM
QB50P2 29 Jun 01:40:23 01:44:42 85° 103° (ESE) 01:48:57 145.880/145.840
EO-79 29 Jun 02:03:33 02:07:47 60° 287° (WNW) 02:11:58 145.935-145.965
RS-15 29 Jun 02:08:21 02:18:46 30° 356° (N) 02:29:01 29.354- 29.394
DUCHIFAT 1 29 Jun 02:12:48 02:17:00 58° 287° (WNW) 02:21:09 145.980
NANOSAT C BR1 29 Jun 02:23:41 02:27:41 40° 290° (WNW) 02:31:39 145.865
SPROUT 29 Jun 02:32:36 02:35:08 15° 270° (W) 02:37:40 437.525
ITUPSAT 1 29 Jun 02:33:02 02:35:55 16° 59° (ENE) 02:38:47 437.325
BEESAT 29 Jun 02:39:52 02:43:09 19° 61° (ENE) 02:46:24 436.000
VELOX 1 29 Jun 02:41:43 02:44:00 14° 270° (W) 02:46:18 145.980
DX 1 29 Jun 02:46:29 02:50:21 32° 263° (W) 02:54:15 434.975-435.025
UKube-1 29 Jun 02:55:16 02:59:15 37° 262° (W) 03:03:16 .
50 SAT 29 Jun 02:55:50 02:57:19 12° 268° (W) 02:58:49 437.505
Gurwin Techsat 1B 29 Jun 03:02:57 03:07:46 34° 96° (E) 03:12:34 435.225
POLYITAN 1 29 Jun 03:06:22 03:08:53 15° 298° (WNW) 03:11:24 437.675
BUGSAT 1 29 Jun 03:07:03 03:11:10 49° 288° (WNW) 03:15:15 437.445
MOZHAYETS 4 29 Jun 03:12:41 03:16:18 23° 64° (ENE) 03:19:55
NO-84 29 Jun 03:14:04 03:18:09 38° 25° (NNE) 03:22:16 435.350 FM
Oscar 19 29 Jun 03:17:15 03:22:23 71° 103° (ESE) 03:27:29 437.125/150
QB50P2 29 Jun 03:18:31 03:19:48 11° 301° (WNW) 03:21:07 145.880/145.840
AO-85 29 Jun 03:21:18 03:22:18 11° 31° (NNE) 03:23:19 145.980
ITAMSAT 1 29 Jun 04:04:38 04:07:54 17° 90° (E) 04:11:09 435.822/435.867
CUBESAT XI-V 29 Jun 04:05:14 04:08:00 16° 61° (ENE) 04:10:45 437.345
ITUPSAT 1 29 Jun 04:08:22 04:13:10 71° 258° (WSW) 04:18:00 437.325
BEESAT 3 29 Jun 04:13:47 04:16:22 16° 37° (NE) 04:18:55 437.485
BEESAT 29 Jun 04:15:44 04:20:28 59° 259° (W) 04:25:13 436.000
KKS-1 29 Jun 04:18:46 04:21:14 15° 60° (ENE) 04:23:42 437.445
RS-15 29 Jun 04:24:12 04:35:40 41° 30° (NNE) 04:46:39 29.354- 29.394
STARS 29 Jun 04:39:08 04:39:47 10° 57° (ENE) 04:40:26 437.465
Gurwin Techsat 1B 29 Jun 04:42:54 04:47:42 35° 294° (WNW) 04:52:28 435.225
MOZHAYETS 4 29 Jun 04:48:47 04:53:12 43° 262° (W) 04:57:37
NO-84 29 Jun 04:51:39 04:55:55 53° 224° (SW) 05:00:08 435.350 FM
Oscar 19 29 Jun 04:57:50 05:01:09 18° 301° (WNW) 05:04:27 437.125/150
AO-7 29 Jun 04:59:18 05:07:25 50° 101° (ESE) 05:15:27 .
AO-85 29 Jun 04:59:32 05:03:33 54° 51° (NE) 05:07:48 145.980
BEESAT 2 29 Jun 05:21:31 05:24:53 24° 42° (NE) 05:28:13 435.950
CUBESAT XI-V 29 Jun 05:40:16 05:44:52 65° 259° (WSW) 05:49:28 437.345
ITAMSAT 1 29 Jun 05:42:39 05:47:53 69° 287° (WNW) 05:53:03 435.822/435.867
BEESAT 3 29 Jun 05:50:26 05:54:28 79° 237° (WSW) 05:58:25 437.485
KKS-1 29 Jun 05:52:51 05:57:15 67° 257° (WSW) 06:01:42 437.445
O/OREOS (USA 219) 29 Jun 05:53:25 05:54:36 11° 44° (NE) 05:55:47 437.305
STARS 29 Jun 06:10:58 06:15:21 83° 74° (ENE) 06:19:48 437.465
RS-15 29 Jun 06:37:22 06:49:36 83° 238° (WSW) 07:01:11 29.354- 29.394
AO-85 29 Jun 06:40:49 06:43:37 17° 247° (WSW) 06:46:31 145.980
XW-2F 29 Jun 06:46:15 06:46:23 10° 89° (E) 06:46:31 145.980 - 146.000
XW-2D 29 Jun 06:51:36 06:53:28 13° 90° (E) 06:55:19 145.860 - 145.880
AO-7 29 Jun 06:52:19 07:00:03 43° 301° (WNW) 07:07:45 .
Tancredo 1 29 Jun 06:52:43 06:53:51 12° 132° (SE) 06:54:59 437.200
DOVE 4 29 Jun 06:57:37 07:02:24 43° 98° (E) 07:07:20 437.250
BEESAT 2 29 Jun 06:58:56 07:02:49 43° 241° (WSW) 07:06:38 435.950
XW-2B 29 Jun 07:00:16 07:02:40 16° 92° (E) 07:05:04 145.730 - 145.750
LilacSat-2 29 Jun 07:04:15 07:07:01 19° 93° (E) 07:09:46 437.200
XW-2C 29 Jun 07:15:25 07:18:32 24° 95° (E) 07:21:37 145.795 - 145.815
CUTE-I 29 Jun 07:15:48 07:20:15 26° 94° (E) 07:24:41 437.470
KAITUO 1B 29 Jun 07:19:22 07:22:13 21° 94° (E) 07:25:02 145.475/437.950
ITAMSAT 1 29 Jun 07:24:56 07:26:22 11° 306° (NW) 07:27:49 435.822/435.867
O/OREOS (USA 219) 29 Jun 07:30:23 07:34:52 73° 64° (ENE) 07:39:19 437.305
NUDT-PHONESAT 29 Jun 07:48:30 07:52:04 44° 99° (E) 07:55:36 437.300
STARS 29 Jun 07:51:53 07:52:17 10° 272° (W) 07:52:41 437.465
STRAND 1 29 Jun 07:53:17 07:58:18 57° 71° (ENE) 08:03:22 437.568
ISS 29 Jun 07:59:35 08:02:21 26° 139° (SE) 08:05:09 437.550
XW-2F 29 Jun 08:17:13 08:20:56 62° 285° (WNW) 08:24:36 145.980 - 146.000
FO-29 29 Jun 08:19:52 08:21:27 11° 44° (NE) 08:23:04 435.910
XW-2D 29 Jun 08:24:18 08:27:55 46° 288° (WNW) 08:31:31 145.860 - 145.880
HO-68 29 Jun 08:25:48 08:32:14 34° 96° (E) 08:38:37 435.675
Tancredo 1 29 Jun 08:25:57 08:28:58 87° 139° (SE) 08:32:00 437.200
XW-2B 29 Jun 08:33:31 08:37:02 38° 289° (WNW) 08:40:31 145.730 - 145.750
DOVE 4 29 Jun 08:35:45 08:39:52 27° 294° (WNW) 08:44:07 437.250
LilacSat-2 29 Jun 08:37:59 08:41:23 32° 290° (WNW) 08:44:45 437.200
CUBEBUG 2 29 Jun 08:39:38 08:43:11 21° 91° (E) 08:46:39 437.445
AO-7 29 Jun 08:47:55 08:50:37 12° 324° (NW) 08:53:18 .
XW-2C 29 Jun 08:49:32 08:52:40 25° 292° (WNW) 08:55:47 145.795 - 145.815
RS-15 29 Jun 08:51:42 09:00:06 23° 262° (W) 09:08:17 29.354- 29.394
KAITUO 1B 29 Jun 08:53:01 08:56:14 28° 291° (WNW) 08:59:26 145.475/437.950
YUBILEINY 29 Jun 08:54:33 09:02:49 41° 70° (ENE) 09:10:57 435.215
SEEDS 29 Jun 08:54:45 08:58:33 33° 97° (E) 09:02:19 437.485
CUTE-I 29 Jun 08:55:21 09:00:30 46° 291° (WNW) 09:05:36 437.470
UWE-3 29 Jun 09:04:24 09:07:57 22° 92° (E) 09:11:25 435.000/436.395/437.385
XW-2A 29 Jun 09:05:59 09:09:18 48° 100° (E) 09:12:34 145.665 - 145.685
O/OREOS (USA 219) 29 Jun 09:11:54 09:13:37 12° 262° (W) 09:15:20 437.305
UNISAT 6 29 Jun 09:18:09 09:19:56 12° 58° (ENE) 09:21:44 437.425
CUTE 1.7 + AOD 2 29 Jun 09:20:09 09:24:22 82° 284° (WNW) 09:28:34 437.475
NUDT-PHONESAT 29 Jun 09:23:33 09:25:36 14° 296° (WNW) 09:27:39 437.300
AAUSAT CUBESAT 2 29 Jun 09:32:51 09:36:46 40° 98° (E) 09:40:39 437.432
STRAND 1 29 Jun 09:34:09 09:37:50 20° 269° (W) 09:41:33 437.568
ISS 29 Jun 09:35:28 09:38:41 52° 336° (NNW) 09:41:55 437.550
M-CUBED/EXP-1 PRIME 29 Jun 09:36:21 09:39:09 27° 64° (ENE) 09:41:59 437.505
AO-73 29 Jun 09:47:53 09:51:49 31° 95° (E) 09:55:38 145.935
FO-29 29 Jun 09:58:31 10:04:36 48° 66° (ENE) 10:11:28 435.910
Tancredo 1 29 Jun 10:02:10 10:04:48 26° 348° (NNW) 10:07:27 437.200
TIGRISAT 29 Jun 10:08:28 10:12:35 32° 67° (ENE) 10:16:45 435.000
Oscar 11 29 Jun 10:09:42 10:13:46 40° 98° (E) 10:17:48 .
HO-68 29 Jun 10:13:17 10:20:11 51° 295° (WNW) 10:27:02 435.675
CUBEBUG 2 29 Jun 10:15:33 10:20:01 44° 290° (WNW) 10:24:21 437.445
PRISM 29 Jun 10:19:14 10:23:01 40° 70° (ENE) 10:26:51 437.425
DELFI C3 29 Jun 10:21:57 10:24:01 14° 91° (E) 10:26:06 145.870
ZACube-1 29 Jun 10:25:13 10:29:42 85° 103° (ESE) 10:34:01 437.345
SEEDS 29 Jun 10:30:46 10:34:04 23° 294° (WNW) 10:37:22 437.485
UWE-3 29 Jun 10:40:17 10:44:34 40° 290° (WNW) 10:48:42 435.000/436.395/437.385
XW-2A 29 Jun 10:40:26 10:41:36 11° 297° (WNW) 10:42:47 145.665 - 145.685
UNISAT 6 29 Jun 10:51:14 10:55:53 88° 67° (ENE) 11:00:38 437.425
YUBILEINY 29 Jun 10:51:24 10:59:46 49° 272° (W) 11:08:03 435.215
AAUSAT CUBESAT 2 29 Jun 11:09:01 11:11:57 19° 295° (WNW) 11:14:52 437.432
M-CUBED/EXP-1 PRIME 29 Jun 11:11:29 11:13:42 17° 261° (W) 11:15:55 437.505
ISS 29 Jun 11:12:52 11:15:39 25° 356° (N) 11:18:28 437.550
EO-79 29 Jun 11:23:57 11:26:14 14° 61° (ENE) 11:28:32 145.935-145.965
AO-73 29 Jun 11:24:13 11:27:57 27° 293° (WNW) 11:31:35 145.935
DUCHIFAT 1 29 Jun 11:32:38 11:34:55 14° 61° (ENE) 11:37:12 145.980
Tancredo 1 29 Jun 11:38:25 11:40:59 24° 8° (N) 11:43:34 437.200
NANOSAT C BR1 29 Jun 11:42:40 11:45:44 20° 64° (ENE) 11:48:50 145.865
FO-29 29 Jun 11:44:13 11:49:52 34° 268° (W) 11:56:13 435.910
TIGRISAT 29 Jun 11:45:09 11:49:14 30° 265° (W) 11:53:23 435.000
Oscar 11 29 Jun 11:46:24 11:49:39 21° 295° (WNW) 11:52:54 .
EO-88 29 Jun 11:49:40 11:53:19 84° 287° (WNW) 11:56:58 145.990 - 145.960
AIST 2D 29 Jun 11:52:20 11:55:45 47° 73° (ENE) 11:59:11 435.315
DELFI C3 29 Jun 11:55:15 11:59:05 50° 287° (WNW) 12:02:54 145.870
PRISM 29 Jun 11:55:42 11:58:29 18° 267° (W) 12:01:17 437.425
LO-87 29 Jun 11:58:50 12:01:11 16° 92° (E) 12:03:31 145.935 - 145.965
ZACube-1 29 Jun 12:03:44 12:05:15 12° 301° (WNW) 12:06:46 437.345
HO-68 29 Jun 12:03:54 12:06:17 12° 316° (NW) 12:08:40 435.675
POLYITAN 1 29 Jun 12:23:16 12:27:27 55° 72° (ENE) 12:31:40 437.675
BUGSAT 1 29 Jun 12:24:41 12:27:12 16° 62° (ENE) 12:29:43 437.445
PCSat 29 Jun 12:26:48 12:32:11 71° 119° (ESE) 12:37:37 145.827
UNISAT 6 29 Jun 12:32:22 12:33:15 10° 274° (W) 12:34:09 437.425
QB50P2 29 Jun 12:34:18 12:38:33 80° 76° (ENE) 12:42:52 145.880/145.840
